Weather History for Gunnison, CO

Change the Weather History Date:

Monday, April 28, 2014

  Actual Average Record
Temperature  
Mean Temperature 32 °F -  
Max Temperature 39 °F 55 °F 71 °F (2007)
Min Temperature 24 °F 25 °F 17 °F (2008)
Degree Days  
Heating Degree Days 34    
Moisture  
Dew Point 19 °F    
Average Humidity 65    
Maximum Humidity 80    
Minimum Humidity 33    
Precipitation  
Precipitation 0.00 in - - ()
Sea Level Pressure  
Sea Level Pressure 29.95 in    
Wind  
Wind Speed 8 mph (WNW)    
Max Wind Speed 25 mph    
Max Gust Speed 36 mph    
Visibility 9 miles    
Events      
Averages and records for this station are not official NWS values.
T = Trace of Precipitation, MM = Missing Value Source: NWS Daily Summary

Daily Weather History Graph

Daily Weather History Graph

Search for Another Location

Airport:

Trip Planner

Search our weather history database for the weather conditions in past years. The results will help you decide how hot, cold, wet, or windy it might be!

Date:

Astronomy

Apr. 28, 2014 Rise Set
Actual Time 6:14 AM MDT 7:56 PM MDT
Civil Twilight 5:45 AM MDT 8:25 PM MDT
Nautical Twilight 5:11 AM MDT 8:59 PM MDT
Astronomical Twilight 4:35 AM MDT 9:36 PM MDT
Moon 5:53 AM MDT (4/28) 7:38 PM MDT (4/28)
Length of Visible Light 14h 39m
Length of Day
13h 42m
Waning Crescent, 0% of the Moon is Illuminated
Apr 28
Waning Crescent
Apr 29
New
May 6
First Quarter
May 14
Full
May 21
Last Quarter

Hourly Weather History & Observations

Time (MDT) Temp. Windchill Dew Point Humidity Pressure Visibility Wind Dir Wind Speed Gust Speed Precip Events Conditions
12:15 AM 32.0 °F 24.8 °F 23.0 °F 69% 29.86 in 10.0 mi NW 8.1 mph - N/A   Partly Cloudy
12:35 AM 32.0 °F 26.4 °F 23.0 °F 69% 29.85 in 10.0 mi NNW 5.8 mph - N/A   Mostly Cloudy
12:55 AM 32.0 °F - 23.0 °F 69% 29.85 in 10.0 mi Calm Calm - N/A   Partly Cloudy
1:15 AM 30.2 °F - 23.0 °F 75% 29.84 in 10.0 mi Calm Calm - N/A   Clear
1:35 AM 30.2 °F 24.3 °F 23.0 °F 75% 29.85 in 10.0 mi NW 5.8 mph - N/A   Clear
2:15 AM 30.2 °F 25.4 °F 23.0 °F 75% 29.84 in 10.0 mi NW 4.6 mph - N/A   Partly Cloudy
2:35 AM 28.4 °F - 21.2 °F 74% 29.84 in 10.0 mi Calm Calm - N/A   Clear
2:55 AM 30.2 °F 25.4 °F 21.2 °F 69% 29.84 in 10.0 mi NW 4.6 mph - N/A   Clear
3:15 AM 28.4 °F - 19.4 °F 69% 29.84 in 10.0 mi Calm Calm - N/A   Clear
3:35 AM 28.4 °F - 21.2 °F 74% 29.84 in 10.0 mi Calm Calm - N/A   Clear
3:55 AM 26.6 °F - 17.6 °F 69% 29.84 in 10.0 mi Calm Calm - N/A   Clear
4:15 AM 24.8 °F - 17.6 °F 74% 29.84 in 10.0 mi Calm Calm - N/A   Clear
4:35 AM 26.6 °F - 19.4 °F 74% 29.84 in 10.0 mi Calm Calm - N/A   Clear
4:55 AM 26.6 °F - 21.2 °F 80% 29.84 in 10.0 mi Calm Calm - N/A   Clear
5:15 AM 26.6 °F - 21.2 °F 80% 29.85 in 10.0 mi Calm Calm - N/A   Clear
5:35 AM 26.6 °F 21.2 °F 21.2 °F 80% 29.85 in 10.0 mi West 4.6 mph - N/A   Clear
5:55 AM 26.6 °F 20.0 °F 19.4 °F 74% 29.85 in 10.0 mi West 5.8 mph - N/A   Clear
6:15 AM 28.4 °F 21.2 °F 19.4 °F 69% 29.86 in 10.0 mi WSW 6.9 mph - N/A   Partly Cloudy
6:35 AM 28.4 °F 20.4 °F 21.2 °F 74% 29.87 in 10.0 mi WSW 8.1 mph - N/A   Scattered Clouds
6:55 AM 30.2 °F 21.9 °F 21.2 °F 69% 29.87 in 10.0 mi SW 9.2 mph - N/A   Partly Cloudy
7:15 AM 30.2 °F 23.4 °F 21.2 °F 69% 29.87 in 10.0 mi SW 6.9 mph - N/A   Clear
7:35 AM 30.2 °F 19.3 °F 23.0 °F 75% 29.87 in 10.0 mi SW 15.0 mph 18.4 mph N/A   Clear
7:55 AM 30.2 °F 20.8 °F 24.8 °F 80% 29.87 in 10.0 mi WSW 11.5 mph 17.3 mph N/A   Clear
8:15 AM 32.0 °F 23.0 °F 23.0 °F 69% 29.88 in 10.0 mi WSW 11.5 mph - N/A   Clear
8:55 AM 32.0 °F 22.1 °F 24.8 °F 75% 29.87 in 8.0 mi WSW 13.8 mph - N/A   Mostly Cloudy
9:15 AM 33.8 °F 23.9 °F 24.8 °F 70% 29.88 in 10.0 mi West 15.0 mph 24.2 mph N/A   Partly Cloudy
9:35 AM 33.8 °F 25.8 °F 23.0 °F 65% 29.88 in 10.0 mi WSW 10.4 mph 21.9 mph N/A   Mostly Cloudy
9:55 AM 33.8 °F 23.9 °F 24.8 °F 70% 29.87 in 10.0 mi West 15.0 mph 28.8 mph N/A   Mostly Cloudy
10:15 AM 35.6 °F 24.8 °F 19.4 °F 52% 29.88 in 10.0 mi West 19.6 mph 26.5 mph N/A   Mostly Cloudy
10:35 AM 28.4 °F 17.5 °F 23.0 °F 80% 29.89 in 0.8 mi NNW 13.8 mph 24.2 mph N/A   Overcast
10:55 AM 32.0 °F 22.1 °F 26.6 °F 80% 29.89 in 3.0 mi North 13.8 mph 20.7 mph N/A   Mostly Cloudy
11:15 AM 32.0 °F 22.5 °F 23.0 °F 69% 29.90 in 10.0 mi NNW 12.7 mph - N/A   Mostly Cloudy
11:35 AM 33.8 °F 22.8 °F 24.8 °F 70% 29.89 in 10.0 mi North 18.4 mph 21.9 mph N/A   Scattered Clouds
11:55 AM 33.8 °F 22.5 °F 23.0 °F 65% 29.89 in 10.0 mi North 19.6 mph 27.6 mph N/A   Scattered Clouds
12:15 PM 35.6 °F 24.2 °F 21.2 °F 56% 29.90 in 10.0 mi NW 21.9 mph 27.6 mph N/A   Mostly Cloudy
12:35 PM 33.8 °F 22.8 °F 21.2 °F 60% 29.91 in 7.0 mi NNW 18.4 mph 33.4 mph N/A   Mostly Cloudy
12:55 PM 30.2 °F 19.8 °F 19.4 °F 64% 29.93 in 2.5 mi NNW 13.8 mph 24.2 mph N/A   Mostly Cloudy
1:15 PM 30.2 °F 19.3 °F 23.0 °F 75% 29.94 in 3.0 mi North 15.0 mph 21.9 mph N/A   Mostly Cloudy
1:55 PM 33.8 °F 24.3 °F 23.0 °F 65% 29.92 in 10.0 mi NNE 13.8 mph 26.5 mph N/A   Mostly Cloudy
2:15 PM 37.4 °F 26.4 °F 17.6 °F 45% 29.91 in 10.0 mi West 23.0 mph 29.9 mph N/A   Partly Cloudy
2:35 PM 39.2 °F 28.3 °F 12.2 °F 33% 29.93 in 10.0 mi NW 25.3 mph 35.7 mph N/A   Partly Cloudy
3:15 PM 35.6 °F 24.5 °F 21.2 °F 56% 29.95 in 10.0 mi NNW 20.7 mph 28.8 mph N/A   Partly Cloudy
3:35 PM 37.4 °F 28.2 °F 12.2 °F 36% 29.96 in 10.0 mi NW 16.1 mph 20.7 mph N/A   Partly Cloudy
3:55 PM 39.2 °F 28.7 °F 15.8 °F 39% 29.96 in 10.0 mi NW 23.0 mph 29.9 mph N/A   Partly Cloudy
4:15 PM 37.4 °F 26.6 °F 14.0 °F 38% 29.98 in 10.0 mi WNW 21.9 mph 29.9 mph N/A   Partly Cloudy
4:35 PM 37.4 °F 27.5 °F 14.0 °F 38% 29.98 in 10.0 mi WNW 18.4 mph 24.2 mph N/A   Clear
4:55 PM 32.0 °F 22.1 °F 14.0 °F 48% 30.00 in 1.5 mi West 13.8 mph 31.1 mph N/A   Mostly Cloudy
5:15 PM 33.8 °F 23.2 °F 17.6 °F 52% 30.00 in 10.0 mi NNW 17.3 mph 21.9 mph N/A   Partly Cloudy
5:35 PM 30.2 °F 18.9 °F 17.6 °F 60% 30.03 in 3.0 mi North 16.1 mph 25.3 mph N/A   Mostly Cloudy
5:55 PM 28.4 °F 16.2 °F 21.2 °F 74% 30.03 in 0.8 mi NNW 17.3 mph 23.0 mph N/A   Overcast
6:15 PM 28.4 °F 20.4 °F 19.4 °F 69% 30.03 in 8.0 mi North 8.1 mph - N/A   Scattered Clouds
6:35 PM 30.2 °F - 19.4 °F 64% 30.03 in 10.0 mi Calm Calm - N/A   Partly Cloudy
6:55 PM 30.2 °F - 21.2 °F 69% 30.05 in 10.0 mi Calm Calm - N/A   Mostly Cloudy
7:15 PM 28.4 °F 18.5 °F 19.4 °F 69% 30.06 in 1.8 mi West 11.5 mph - N/A   Overcast
7:35 PM 28.4 °F 20.4 °F 21.2 °F 74% 30.05 in 10.0 mi West 8.1 mph - N/A   Partly Cloudy
7:55 PM 28.4 °F 21.2 °F 17.6 °F 64% 30.06 in 10.0 mi NW 6.9 mph - N/A   Partly Cloudy
8:15 PM 28.4 °F 23.3 °F 19.4 °F 69% 30.07 in 10.0 mi NNW 4.6 mph - N/A   Clear
8:35 PM 28.4 °F 22.2 °F 17.6 °F 64% 30.09 in 10.0 mi WNW 5.8 mph - N/A   Clear
8:55 PM 28.4 °F 20.4 °F 14.0 °F 55% 30.10 in 10.0 mi WNW 8.1 mph - N/A   Clear
9:15 PM 28.4 °F 19.7 °F 14.0 °F 55% 30.11 in 10.0 mi WSW 9.2 mph 17.3 mph N/A   Clear
9:35 PM 26.6 °F 17.5 °F 17.6 °F 69% 30.12 in 10.0 mi West 9.2 mph - N/A   Clear
9:55 PM 26.6 °F 19.1 °F 15.8 °F 64% 30.12 in 10.0 mi West 6.9 mph - N/A   Clear
10:15 PM 28.4 °F 23.3 °F 12.2 °F 51% 30.13 in 10.0 mi WNW 4.6 mph - N/A   Clear
10:35 PM 26.6 °F 22.6 °F 12.2 °F 55% 30.13 in 10.0 mi West 3.5 mph - N/A   Clear
10:55 PM 26.6 °F 21.2 °F 10.4 °F 51% 30.13 in 10.0 mi WNW 4.6 mph - N/A   Clear
11:15 PM 24.8 °F - 12.2 °F 59% 30.14 in 10.0 mi Calm Calm - N/A   Clear
11:35 PM 28.4 °F 20.4 °F 12.2 °F 51% 30.15 in 10.0 mi NW 8.1 mph - N/A   Clear
11:55 PM 28.4 °F 22.2 °F 10.4 °F 47% 30.15 in 10.0 mi NW 5.8 mph - N/A   Clear